This is the latest recevied weather packets stored in our database for station/object ke5jzm-1. If no packets are shown the sender has not sent any weather packets the latest 10 day(s).
| Time | Temp. | Humidity | Pressure | Rain* | Wind** | Luminosity | Snow |
|---|---|---|---|---|---|---|---|
| 1777664131 | 24.44° C | 61% | 1011.3 hPa | 14.22 mm | - | 41 W/m² | - |
| 1777664071 | 24.44° C | 61% | 1011.2 hPa | 13.97 mm | - | 45 W/m² | - |
| 1777664017 | 24.44° C | 61% | 1011.3 hPa | 13.72 mm | - | 46 W/m² | - |
| 1777663952 | 24.44° C | 61% | 1011.3 hPa | 13.21 mm | - | 47 W/m² | - |
| 1777663891 | 24.44° C | 61% | 1011.3 hPa | 12.7 mm | - | 51 W/m² | - |
| 1777663831 | 24.44° C | 61% | 1011.3 hPa | 12.7 mm | - | 51 W/m² | - |
| 1777663772 | 24.44° C | 61% | 1011.2 hPa | 12.45 mm | - | 50 W/m² | - |
| 1777663652 | 24.44° C | 61% | 1011.2 hPa | 12.19 mm | - | 42 W/m² | - |
| 1777663472 | 24.44° C | 61% | 1011.2 hPa | 11.68 mm | - | 62 W/m² | - |
| 1777663418 | 24.44° C | 61% | 1011.1 hPa | 11.43 mm | - | 63 W/m² | - |
| 1777663351 | 23.89° C | 61% | 1011.1 hPa | 10.67 mm | - | 60 W/m² | - |
| 1777663290 | 24.44° C | 60% | 1011.1 hPa | 9.65 mm | - | 54 W/m² | - |
| 1777663229 | 23.89° C | 60% | 1011.1 hPa | 9.14 mm | - | 39 W/m² | - |
| 1777663170 | 24.44° C | 60% | 1011.1 hPa | 8.38 mm | - | 33 W/m² | - |
| 1777663114 | 24.44° C | 60% | 1011.1 hPa | 7.87 mm | - | 32 W/m² | - |
| 1777663050 | 24.44° C | 60% | 1011.1 hPa | 7.37 mm | - | 33 W/m² | - |
| 1777662990 | 23.89° C | 60% | 1011.2 hPa | 6.86 mm | - | 30 W/m² | - |
| 1777662930 | 23.89° C | 60% | 1011.2 hPa | 6.1 mm | - | 24 W/m² | - |
| 1777662870 | 24.44° C | 60% | 1011.3 hPa | 5.08 mm | - | 18 W/m² | - |
| 1777662816 | 24.44° C | 60% | 1011.4 hPa | 4.06 mm | - | 15 W/m² | - |
| 1777662749 | 24.44° C | 60% | 1011.4 hPa | 3.3 mm | - | 13 W/m² | - |
| 1777662690 | 24.44° C | 60% | 1011.4 hPa | 2.79 mm | - | 11 W/m² | - |
| 1777662629 | 24.44° C | 60% | 1011.4 hPa | 2.54 mm | - | 10 W/m² | - |
| 1777662570 | 24.44° C | 60% | 1011.4 hPa | 2.54 mm | - | 10 W/m² | - |
| 1777662514 | 24.44° C | 60% | 1011.3 hPa | 2.29 mm | - | 10 W/m² | - |
* Rain latest hour (hover to see other rain measurements)
** Current wind speed in m/s (hover to see current wind gust speed)